Time,TemperatureF,DewpointF,PressureIn,WindDirection,WindDirectionDegrees,WindSpeedMPH,WindSpeedGustMPH,Humidity,HourlyPrecipIn,Conditions,Clouds,dailyrainin,SoftwareType,DateUTC
2013-05-04 00:00:00,64.0,42.2,29.96,ESE,107,2.0,15.0,45,0.00,,,0.00,Weather View 32 v70,2013-05-04 04:00:00,
2013-05-04 00:10:00,64.3,41.3,29.96,East,101,13.0,19.0,43,0.00,,,0.00,Weather View 32 v70,2013-05-04 04:10:00,
2013-05-04 00:20:00,64.3,41.3,29.96,ESE,113,7.0,19.0,43,0.00,,,0.00,Weather View 32 v70,2013-05-04 04:20:00,
2013-05-04 00:30:00,64.2,41.2,29.96,ESE,107,14.0,19.0,43,0.00,,,0.00,Weather View 32 v70,2013-05-04 04:30:00,
2013-05-04 00:40:00,64.1,41.1,29.96,East,99,0.0,19.0,43,0.00,,,0.00,Weather View 32 v70,2013-05-04 04:40:00,
2013-05-04 00:50:00,63.7,41.9,29.96,East,98,4.0,19.0,45,0.00,,,0.00,Weather View 32 v70,2013-05-04 04:50:00,
2013-05-04 01:00:00,63.3,41.5,29.96,ESE,112,0.0,19.0,45,0.00,,,0.00,Weather View 32 v70,2013-05-04 05:00:00,
2013-05-04 01:10:00,63.2,42.0,29.96,ESE,103,9.0,19.0,46,0.00,,,0.00,Weather View 32 v70,2013-05-04 05:10:00,
2013-05-04 01:20:00,62.9,42.9,29.96,ESE,103,6.0,19.0,48,0.00,,,0.00,Weather View 32 v70,2013-05-04 05:20:00,
2013-05-04 01:30:00,62.7,42.7,29.96,ESE,107,0.0,19.0,48,0.00,,,0.00,Weather View 32 v70,2013-05-04 05:30:00,
2013-05-04 01:40:00,62.6,43.1,29.96,ESE,120,0.0,19.0,49,0.00,,,0.00,Weather View 32 v70,2013-05-04 05:40:00,
2013-05-04 01:50:00,62.6,43.7,29.97,ESE,113,7.0,19.0,50,0.00,,,0.00,Weather View 32 v70,2013-05-04 05:50:00,
2013-05-04 02:00:00,62.4,44.0,29.97,ESE,105,7.0,19.0,51,0.00,,,0.00,Weather View 32 v70,2013-05-04 06:00:00,
2013-05-04 02:10:00,62.1,44.7,29.96,East,94,4.0,17.0,53,0.00,,,0.00,Weather View 32 v70,2013-05-04 06:10:00,
2013-05-04 02:20:00,61.9,44.5,29.96,ESE,111,14.0,17.0,53,0.00,,,0.00,Weather View 32 v70,2013-05-04 06:20:00,
2013-05-04 02:30:00,61.7,44.8,29.96,ESE,108,8.0,18.0,54,0.00,,,0.00,Weather View 32 v70,2013-05-04 06:30:00,
2013-05-04 02:40:00,61.6,45.2,29.96,ESE,102,7.0,18.0,55,0.00,,,0.00,Weather View 32 v70,2013-05-04 06:40:00,
2013-05-04 02:50:00,61.5,45.1,29.96,East,91,4.0,18.0,55,0.00,,,0.00,Weather View 32 v70,2013-05-04 06:50:00,
2013-05-04 03:00:00,61.2,45.3,29.96,ESE,110,4.0,18.0,56,0.00,,,0.00,Weather View 32 v70,2013-05-04 07:00:00,
2013-05-04 03:10:00,61.0,45.2,29.96,East,93,5.0,18.0,56,0.00,,,0.00,Weather View 32 v70,2013-05-04 07:10:00,
2013-05-04 03:20:00,60.8,45.9,29.96,ESE,109,0.0,18.0,58,0.00,,,0.00,Weather View 32 v70,2013-05-04 07:20:00,
2013-05-04 03:30:00,60.5,46.1,29.96,East,98,4.0,13.0,59,0.00,,,0.00,Weather View 32 v70,2013-05-04 07:30:00,
2013-05-04 03:40:00,60.2,46.2,29.96,ESE,106,0.0,12.0,60,0.00,,,0.00,Weather View 32 v70,2013-05-04 07:40:00,
2013-05-04 03:50:00,60.0,46.0,29.96,ESE,111,4.0,12.0,60,0.00,,,0.00,Weather View 32 v70,2013-05-04 07:50:00,
2013-05-04 04:00:00,59.8,46.7,29.96,ESE,109,0.0,12.0,62,0.00,,,0.00,Weather View 32 v70,2013-05-04 08:00:00,
2013-05-04 04:10:00,59.4,46.8,29.96,East,92,0.0,11.0,63,0.00,,,0.00,Weather View 32 v70,2013-05-04 08:10:00,
2013-05-04 04:20:00,59.1,46.9,29.96,East,99,0.0,9.0,64,0.00,,,0.00,Weather View 32 v70,2013-05-04 08:20:00,
2013-05-04 04:30:00,58.9,46.7,29.96,East,97,0.0,9.0,64,0.00,,,0.00,Weather View 32 v70,2013-05-04 08:30:00,
2013-05-04 04:40:00,58.9,47.1,29.96,East,86,2.0,9.0,65,0.00,,,0.00,Weather View 32 v70,2013-05-04 08:40:00,
2013-05-04 04:50:00,58.8,47.0,29.96,East,88,0.0,8.0,65,0.00,,,0.00,Weather View 32 v70,2013-05-04 08:50:00,
2013-05-04 05:00:00,58.8,47.0,29.96,East,79,1.0,7.0,65,0.00,,,0.00,Weather View 32 v70,2013-05-04 09:00:00,
2013-05-04 05:10:00,58.8,47.4,29.96,East,96,4.0,8.0,66,0.00,,,0.00,Weather View 32 v70,2013-05-04 09:10:00,
2013-05-04 05:20:00,58.7,47.3,29.96,ESE,107,7.0,9.0,66,0.00,,,0.00,Weather View 32 v70,2013-05-04 09:20:00,
2013-05-04 05:30:00,58.7,47.3,29.96,East,101,0.0,11.0,66,0.00,,,0.00,Weather View 32 v70,2013-05-04 09:30:00,
2013-05-04 05:40:00,58.7,47.3,29.95,East,98,0.0,12.0,66,0.00,,,0.00,Weather View 32 v70,2013-05-04 09:40:00,
2013-05-04 05:50:00,58.6,47.7,29.95,East,94,0.0,12.0,67,0.00,,,0.00,Weather View 32 v70,2013-05-04 09:50:00,
2013-05-04 06:00:00,58.4,47.5,29.95,East,101,0.0,14.0,67,0.00,,,0.00,Weather View 32 v70,2013-05-04 10:00:00,
2013-05-04 06:10:00,58.3,47.4,29.95,East,91,0.0,14.0,67,0.00,,,0.00,Weather View 32 v70,2013-05-04 10:10:00,
2013-05-04 06:20:00,57.9,47.4,29.95,East,86,2.0,14.0,68,0.00,,,0.00,Weather View 32 v70,2013-05-04 10:20:00,
2013-05-04 06:30:00,57.5,47.4,29.96,East,86,0.0,14.0,69,0.00,,,0.00,Weather View 32 v70,2013-05-04 10:30:00,
2013-05-04 06:40:00,57.2,47.5,29.96,East,87,0.0,14.0,70,0.00,,,0.00,Weather View 32 v70,2013-05-04 10:40:00,
2013-05-04 06:50:00,57.0,47.3,29.96,East,89,0.0,14.0,70,0.00,,,0.00,Weather View 32 v70,2013-05-04 10:50:00,
2013-05-04 07:00:00,56.8,47.5,29.96,East,80,2.0,11.0,71,0.00,,,0.00,Weather View 32 v70,2013-05-04 11:00:00,
2013-05-04 07:10:00,56.7,47.4,29.96,East,84,0.0,8.0,71,0.00,,,0.00,Weather View 32 v70,2013-05-04 11:10:00,
2013-05-04 07:20:00,56.7,47.8,29.96,East,88,4.0,8.0,72,0.00,,,0.00,Weather View 32 v70,2013-05-04 11:20:00,
2013-05-04 07:30:00,56.9,47.6,29.96,East,82,2.0,8.0,71,0.00,,,0.00,Weather View 32 v70,2013-05-04 11:30:00,
2013-05-04 07:40:00,57.2,47.9,29.96,East,88,4.0,11.0,71,0.00,,,0.00,Weather View 32 v70,2013-05-04 11:40:00,
2013-05-04 07:50:00,57.6,47.9,29.96,ENE,76,5.0,11.0,70,0.00,,,0.00,Weather View 32 v70,2013-05-04 11:50:00,
2013-05-04 08:00:00,58.0,48.2,29.96,East,96,8.0,11.0,70,0.00,,,0.00,Weather View 32 v70,2013-05-04 12:00:00,
2013-05-04 08:20:00,58.4,47.5,29.96,East,86,8.0,14.0,67,0.00,,,0.00,Weather View 32 v70,2013-05-04 12:20:00,
2013-05-04 08:30:00,58.5,47.6,29.96,East,96,0.0,14.0,67,0.00,,,0.00,Weather View 32 v70,2013-05-04 12:30:00,
2013-05-04 08:40:00,58.8,47.0,29.96,East,83,3.0,14.0,65,0.00,,,0.00,Weather View 32 v70,2013-05-04 12:40:00,
2013-05-04 08:50:00,59.1,46.9,29.97,East,93,7.0,15.0,64,0.00,,,0.00,Weather View 32 v70,2013-05-04 12:50:00,
2013-05-04 09:00:00,59.4,47.2,29.97,East,91,9.0,15.0,64,0.00,,,0.00,Weather View 32 v70,2013-05-04 13:00:00,
2013-05-04 09:10:00,59.6,47.0,29.97,ENE,60,4.0,15.0,63,0.00,,,0.00,Weather View 32 v70,2013-05-04 13:10:00,
2013-05-04 09:15:00,59.6,47.0,29.97,ENE,60,4.0,15.0,63,0.00,,,0.00,Weather View 32 v70,2013-05-04 13:15:00,
2013-05-04 09:20:00,59.6,46.1,29.97,ESE,109,5.0,15.0,61,0.00,,,0.00,Weather View 32 v70,2013-05-04 13:20:00,
2013-05-04 09:30:00,59.6,46.1,29.97,East,96,6.0,15.0,61,0.00,,,0.00,Weather View 32 v70,2013-05-04 13:30:00,
2013-05-04 09:40:00,59.9,46.4,29.97,ENE,69,4.0,15.0,61,0.00,,,0.00,Weather View 32 v70,2013-05-04 13:40:00,
2013-05-04 09:50:00,60.3,46.8,29.97,East,91,0.0,15.0,61,0.00,,,0.00,Weather View 32 v70,2013-05-04 13:50:00,
2013-05-04 10:10:00,61.1,46.2,29.97,ENE,66,7.0,15.0,58,0.00,,,0.00,Weather View 32 v70,2013-05-04 14:10:00,
2013-05-04 10:15:00,61.1,46.2,29.97,ENE,66,7.0,15.0,58,0.00,,,0.00,Weather View 32 v70,2013-05-04 14:15:00,
2013-05-04 10:30:00,61.1,46.2,29.96,East,92,0.0,17.0,58,0.00,,,0.00,Weather View 32 v70,2013-05-04 14:30:00,
2013-05-04 10:40:00,61.1,45.2,29.96,ENE,72,7.0,19.0,56,0.00,,,0.00,Weather View 32 v70,2013-05-04 14:40:00,
2013-05-04 10:50:00,61.0,45.2,29.97,ESE,118,9.0,19.0,56,0.00,,,0.00,Weather View 32 v70,2013-05-04 14:50:00,
2013-05-04 11:00:00,61.1,44.3,29.96,East,101,7.0,19.0,54,0.00,,,0.00,Weather View 32 v70,2013-05-04 15:00:00,
2013-05-04 11:10:00,61.3,44.5,29.97,East,96,7.0,19.0,54,0.00,,,0.00,Weather View 32 v70,2013-05-04 15:10:00,
2013-05-04 11:16:00,61.3,44.5,29.97,East,96,7.0,19.0,54,0.00,,,0.00,Weather View 32 v70,2013-05-04 15:16:00,
2013-05-04 11:30:00,62.5,44.6,29.96,East,89,6.0,19.0,52,0.00,,,0.00,Weather View 32 v70,2013-05-04 15:30:00,
2013-05-04 11:40:00,62.6,44.7,29.97,SE,124,4.0,18.0,52,0.00,,,0.00,Weather View 32 v70,2013-05-04 15:40:00,
2013-05-04 11:50:00,63.2,44.7,29.96,ENE,66,6.0,18.0,51,0.00,,,0.00,Weather View 32 v70,2013-05-04 15:50:00,
2013-05-04 12:00:00,64.2,44.6,29.96,ESE,118,9.0,15.0,49,0.00,,,0.00,Weather View 32 v70,2013-05-04 16:00:00,
2013-05-04 12:10:00,64.5,44.9,29.96,ENE,64,5.0,16.0,49,0.00,,,0.00,Weather View 32 v70,2013-05-04 16:10:00,
2013-05-04 12:16:00,64.5,44.9,29.96,ENE,64,5.0,16.0,49,0.00,,,0.00,Weather View 32 v70,2013-05-04 16:16:00,
2013-05-04 12:30:00,64.5,45.4,29.95,East,100,8.0,16.0,50,0.00,,,0.00,Weather View 32 v70,2013-05-04 16:30:00,
2013-05-04 12:40:00,64.4,44.8,29.95,East,90,5.0,16.0,49,0.00,,,0.00,Weather View 32 v70,2013-05-04 16:40:00,
2013-05-04 12:50:00,64.7,45.6,29.95,East,89,3.0,16.0,50,0.00,,,0.00,Weather View 32 v70,2013-05-04 16:50:00,
2013-05-04 13:00:00,65.5,45.8,29.95,ENE,64,8.0,16.0,49,0.00,,,0.00,Weather View 32 v70,2013-05-04 17:00:00,
2013-05-04 13:10:00,65.9,46.2,29.94,East,81,6.0,16.0,49,0.00,,,0.00,Weather View 32 v70,2013-05-04 17:10:00,
2013-05-04 13:17:00,65.9,46.2,29.94,East,81,6.0,16.0,49,0.00,,,0.00,Weather View 32 v70,2013-05-04 17:17:00,
2013-05-04 13:30:00,66.1,47.9,29.94,ENE,67,5.0,16.0,52,0.00,,,0.00,Weather View 32 v70,2013-05-04 17:30:00,
2013-05-04 13:40:00,66.2,46.4,29.94,ENE,63,11.0,18.0,49,0.00,,,0.00,Weather View 32 v70,2013-05-04 17:40:00,
2013-05-04 13:50:00,66.4,46.6,29.94,ENE,74,7.0,18.0,49,0.00,,,0.00,Weather View 32 v70,2013-05-04 17:50:00,
2013-05-04 14:00:00,66.3,47.1,29.94,ESE,102,9.0,18.0,50,0.00,,,0.00,Weather View 32 v70,2013-05-04 18:00:00,
2013-05-04 14:10:00,66.5,46.7,29.93,East,86,3.0,18.0,49,0.00,,,0.00,Weather View 32 v70,2013-05-04 18:10:00,
2013-05-04 14:18:00,66.5,46.7,29.93,East,86,3.0,18.0,49,0.00,,,0.00,Weather View 32 v70,2013-05-04 18:18:00,
2013-05-04 14:30:00,67.9,48.0,29.93,East,80,5.0,18.0,49,0.00,,,0.00,Weather View 32 v70,2013-05-04 18:30:00,
2013-05-04 14:40:00,68.7,48.7,29.93,ENE,73,4.0,15.0,49,0.00,,,0.00,Weather View 32 v70,2013-05-04 18:40:00,
2013-05-04 14:50:00,69.1,49.6,29.92,ENE,67,10.0,15.0,50,0.00,,,0.00,Weather View 32 v70,2013-05-04 18:50:00,
2013-05-04 15:00:00,68.9,48.3,29.92,ENE,69,10.0,18.0,48,0.00,,,0.00,Weather View 32 v70,2013-05-04 19:00:00,
2013-05-04 15:10:00,68.1,48.2,29.92,ESE,116,5.0,18.0,49,0.00,,,0.00,Weather View 32 v70,2013-05-04 19:10:00,
2013-05-04 15:18:00,68.1,48.2,29.92,ESE,116,5.0,18.0,49,0.00,,,0.00,Weather View 32 v70,2013-05-04 19:18:00,
2013-05-04 15:30:00,68.1,48.7,29.92,ESE,104,7.0,18.0,50,0.00,,,0.00,Weather View 32 v70,2013-05-04 19:30:00,
2013-05-04 15:40:00,68.3,50.5,29.92,East,94,8.0,18.0,53,0.00,,,0.00,Weather View 32 v70,2013-05-04 19:40:00,
2013-05-04 15:50:00,68.7,48.7,29.91,ENE,74,2.0,18.0,49,0.00,,,0.00,Weather View 32 v70,2013-05-04 19:50:00,
2013-05-04 16:00:00,68.8,49.3,29.91,East,85,10.0,15.0,50,0.00,,,0.00,Weather View 32 v70,2013-05-04 20:00:00,
2013-05-04 16:10:00,68.9,49.4,29.91,ENE,68,0.0,15.0,50,0.00,,,0.00,Weather View 32 v70,2013-05-04 20:10:00,
2013-05-04 16:19:00,68.9,49.4,29.91,ENE,68,0.0,15.0,50,0.00,,,0.00,Weather View 32 v70,2013-05-04 20:19:00,
2013-05-04 16:30:00,68.7,49.8,29.91,ENE,67,6.0,13.0,51,0.00,,,0.00,Weather View 32 v70,2013-05-04 20:30:00,
2013-05-04 16:40:00,68.6,49.7,29.90,East,94,2.0,13.0,51,0.00,,,0.00,Weather View 32 v70,2013-05-04 20:40:00,
2013-05-04 16:50:00,68.6,50.7,29.90,East,81,5.0,13.0,53,0.00,,,0.00,Weather View 32 v70,2013-05-04 20:50:00,
2013-05-04 17:00:00,68.9,51.5,29.90,ENE,61,4.0,13.0,54,0.00,,,0.00,Weather View 32 v70,2013-05-04 21:00:00,
2013-05-04 17:10:00,69.2,51.3,29.90,East,90,4.0,16.0,53,0.00,,,0.00,Weather View 32 v70,2013-05-04 21:10:00,
2013-05-04 17:19:00,69.2,51.3,29.90,East,90,4.0,16.0,53,0.00,,,0.00,Weather View 32 v70,2013-05-04 21:19:00,
2013-05-04 17:30:00,69.0,52.1,29.90,ESE,109,7.0,16.0,55,0.00,,,0.00,Weather View 32 v70,2013-05-04 21:30:00,
2013-05-04 17:40:00,69.5,50.5,29.90,East,81,10.0,16.0,51,0.00,,,0.00,Weather View 32 v70,2013-05-04 21:40:00,
2013-05-04 17:50:00,70.1,50.5,29.90,ENE,72,7.0,16.0,50,0.00,,,0.00,Weather View 32 v70,2013-05-04 21:50:00,
2013-05-04 18:00:00,71.0,50.8,29.89,East,101,2.0,16.0,49,0.00,,,0.00,Weather View 32 v70,2013-05-04 22:00:00,
2013-05-04 18:10:00,70.3,50.7,29.90,ENE,61,10.0,15.0,50,0.00,,,0.00,Weather View 32 v70,2013-05-04 22:10:00,
2013-05-04 18:20:00,69.2,50.8,29.90,ENE,59,0.0,15.0,52,0.00,,,0.00,Weather View 32 v70,2013-05-04 22:20:00,
2013-05-04 18:30:00,69.3,51.9,29.90,ENE,73,3.0,15.0,54,0.00,,,0.00,Weather View 32 v70,2013-05-04 22:30:00,
2013-05-04 18:40:00,69.4,51.0,29.90,East,88,4.0,15.0,52,0.00,,,0.00,Weather View 32 v70,2013-05-04 22:40:00,
2013-05-04 18:50:00,69.6,50.6,29.90,East,88,0.0,15.0,51,0.00,,,0.00,Weather View 32 v70,2013-05-04 22:50:00,
2013-05-04 19:00:00,69.6,51.7,29.90,ENE,67,3.0,15.0,53,0.00,,,0.00,Weather View 32 v70,2013-05-04 23:00:00,
2013-05-04 19:10:00,69.2,51.3,29.90,ENE,69,2.0,14.0,53,0.00,,,0.00,Weather View 32 v70,2013-05-04 23:10:00,
2013-05-04 19:20:00,68.7,50.8,29.90,ENE,72,0.0,12.0,53,0.00,,,0.00,Weather View 32 v70,2013-05-04 23:20:00,
2013-05-04 19:30:00,68.4,51.6,29.90,ENE,76,3.0,12.0,55,0.00,,,0.00,Weather View 32 v70,2013-05-04 23:30:00,
2013-05-04 19:40:00,67.9,51.1,29.90,ENE,69,0.0,12.0,55,0.00,,,0.00,Weather View 32 v70,2013-05-04 23:40:00,
2013-05-04 19:50:00,67.6,51.3,29.90,NE,45,7.0,12.0,56,0.00,,,0.00,Weather View 32 v70,2013-05-04 23:50:00,
2013-05-04 20:00:00,67.6,51.3,29.91,NE,54,2.0,13.0,56,0.00,,,0.00,Weather View 32 v70,2013-05-05 00:00:00,
2013-05-04 20:10:00,67.0,50.7,29.91,ENE,63,5.0,14.0,56,0.00,,,0.00,Weather View 32 v70,2013-05-05 00:10:00,
2013-05-04 20:20:00,66.6,50.8,29.91,ENE,66,7.0,14.0,57,0.00,,,0.00,Weather View 32 v70,2013-05-05 00:20:00,
2013-05-04 20:30:00,66.2,50.9,29.91,ENE,62,2.0,14.0,58,0.00,,,0.00,Weather View 32 v70,2013-05-05 00:30:00,
2013-05-04 20:40:00,66.0,50.8,29.91,ENE,61,4.0,14.0,58,0.00,,,0.00,Weather View 32 v70,2013-05-05 00:40:00,
2013-05-04 20:50:00,65.6,50.8,29.91,ENE,62,0.0,14.0,59,0.00,,,0.00,Weather View 32 v70,2013-05-05 00:50:00,
2013-05-04 21:00:00,65.3,50.6,29.91,ENE,68,7.0,14.0,59,0.00,,,0.00,Weather View 32 v70,2013-05-05 01:00:00,
2013-05-04 21:20:00,64.9,50.6,29.92,ENE,76,0.0,13.0,60,0.00,,,0.00,Weather View 32 v70,2013-05-05 01:20:00,
2013-05-04 21:30:00,64.5,50.3,29.92,East,92,0.0,13.0,60,0.00,,,0.00,Weather View 32 v70,2013-05-05 01:30:00,
2013-05-04 21:40:00,64.3,50.5,29.93,East,89,0.0,13.0,61,0.00,,,0.00,Weather View 32 v70,2013-05-05 01:40:00,
2013-05-04 21:50:00,64.0,50.7,29.93,East,89,0.0,13.0,62,0.00,,,0.00,Weather View 32 v70,2013-05-05 01:50:00,
2013-05-04 22:00:00,63.5,50.6,29.93,East,90,0.0,13.0,63,0.00,,,0.00,Weather View 32 v70,2013-05-05 02:00:00,
2013-05-04 22:10:00,63.5,51.1,29.94,East,91,5.0,8.0,64,0.00,,,0.00,Weather View 32 v70,2013-05-05 02:10:00,
2013-05-04 22:20:00,63.4,51.0,29.94,East,92,0.0,8.0,64,0.00,,,0.00,Weather View 32 v70,2013-05-05 02:20:00,
2013-05-04 22:30:00,63.2,51.2,29.94,East,91,0.0,7.0,65,0.00,,,0.00,Weather View 32 v70,2013-05-05 02:30:00,
2013-05-04 22:40:00,63.2,51.2,29.94,ENE,75,0.0,7.0,65,0.00,,,0.00,Weather View 32 v70,2013-05-05 02:40:00,
2013-05-04 22:50:00,63.3,51.3,29.94,East,98,6.0,7.0,65,0.00,,,0.00,Weather View 32 v70,2013-05-05 02:50:00,
2013-05-04 23:00:00,63.5,51.5,29.94,East,101,0.0,7.0,65,0.00,,,0.00,Weather View 32 v70,2013-05-05 03:00:00,
2013-05-04 23:10:00,63.7,51.3,29.95,ESE,121,5.0,7.0,64,0.00,,,0.00,Weather View 32 v70,2013-05-05 03:10:00,
2013-05-04 23:20:00,63.9,51.0,29.94,ESE,120,8.0,12.0,63,0.00,,,0.00,Weather View 32 v70,2013-05-05 03:20:00,
2013-05-04 23:30:00,64.0,51.5,29.95,ESE,122,1.0,12.0,64,0.00,,,0.00,Weather View 32 v70,2013-05-05 03:30:00,
2013-05-04 23:40:00,62.8,53.6,29.95,SSW,200,3.0,12.0,72,0.00,,,0.00,Weather View 32 v70,2013-05-05 03:40:00,
2013-05-04 23:50:00,61.0,53.4,29.95,SW,214,0.0,12.0,76,0.00,,,0.00,Weather View 32 v70,2013-05-05 03:50:00,